Location: Unspecified
(0.0000°N, 0.0000°E)
Time: 09:14:10
(UTC+00:00)

METEOR M2 - Pass Details

Date: 29 November 2022
Orbit: 818 x 827 km, 98.4° (Epoch: 01 February)

Event Time Altitude Azimuth Distance (km) Brightness Sun altitude
Rises 18:01:25 0° 162° (SSE) 3,360 ? -3.0°
Reaches altitude 10° 18:03:48 10° 159° (SSE) 2,426 ? -3.6°
Maximum altitude 18:09:07 65° 78° (ENE) 906 ? -4.8°
Drops below altitude 10° 18:14:25 10° 357° (N) 2,419 ? -6.0°
Sets 18:16:47 0° 354° (N) 3,350 ? -6.6°
